Find Dekart

NORAD ID: 46493 Int'l Des: 2020-068 Owner: MGU Country: RU operational
LEOCIRCULARRETROGRADE

Live Position

Loading 3D Globe...

About Dekart

Description loading...

Upcoming Passes

Passes for default location (London). Set your location on the main map for personalized predictions.

Altitude History

Loading altitude history...

Two-Line Element Set

1 46493U 20068H 26105.23524108 .00007775 00000-0 22473-3 0 9998
2 46493 97.8766 110.0673 0010627 139.7079 220.4952 15.35895375306106
Epoch: Apr 15, 2026 • Age: 5 hours

Current Status

Altitude 466.1 km
Velocity 7.64 km/s
Sub-Earth Point 79.17°N, 28.7°W
Launch Date Sep 28, 2020
Age 5.5 years
Type other

Technical Details

Classification Payload
Mass 4.00 kg
Dry Mass 4.00 kg
Total Mass 4.00 kg
Length 0.30 m
Diameter 0.10 m
Span 0.30 m
Shape Box
Manufacturer MGU
Bus Type Cubesat 3U
Phase Status In Orbit
Owner/State MGU/RU

Most Searched